Regional Weather Roundup
Issued by NWS Sterling, VA

Home | Current Version | Previous Version | Text Only | Print | Product List | Glossary Off
Versions: 1 2 3 4 5 6 7 8 9 10 11 12 13 14 15 16 17 18 19 20 21 22 23 24 25 26 27 28 29 30 31 32 33 34 35 36 37 38 39 40 41 42 43 44 45 46 47 48 49 50

000
ASUS41 KLWX 040210
RWRLWX

REGIONAL WEATHER ROUNDUP
NATIONAL WEATHER SERVICE BALTIMORE MD/WASHINGTON DC
900 PM EST TUE MAR 03 2015

Note: "FAIR" indicates few or no clouds below 12,000 feet
with no significant weather and/or obstructions to visibility.
 TC=TEMPERATURE CELSIUS

 * =Non NWS site. Station does not report precipitation (e.g. rain,
    snow, etc.), thunder, or fog.

DCZ001-MDZ009-015-VAZ040>042-051-053>054-040300-
WASHINGTON METRO

CITY           SKY/WX    TMP DP  RH WIND       PRES   REMARKS
WASHINGTON NAT CLOUDY    37  25  61 S12       29.99F
DULLES         CLOUDY    35  27  72 S14G21    29.95F WCI  26
ANDREWS AFB    CLOUDY    33  27  76 S17       29.98F WCI  23
FT BELVOIR     CLOUDY    36  27  69 VRB7      29.99F
QUANTICO       CLOUDY    37  27  67 SW12G17   30.02F
COLLEGE PARK*  CLOUDY    34  28  80 S7        29.97F
LEESBURG*      CLOUDY    36  32  87 S14       29.93F WCI  27
GAITHERSBURG*  CLOUDY    32  25  74 CALM      29.97F

$$

MDZ006>007-011-014-040300-
BALTIMORE METRO

CITY           SKY/WX    TMP DP  RH WIND       PRES   REMARKS
BWI AIRPORT    CLOUDY    31  27  85 S6        29.96F
MD SCIENCE CTR   N/A     32  28  85 MISG      29.99F
MARTIN STATE   DRIZZLE   34  32  93 SE7       30.01F
ANNAPOLIS      CLOUDY    32  28  85 S9        30.00F WCI  24
FORT MEADE*    CLOUDY    32  28  86 S6        29.99F

$$

MDZ012-015-019>023-040300-
MARYLAND EASTERN SHORE

CITY           SKY/WX    TMP DP  RH WIND       PRES   REMARKS
OCEAN CITY     CLOUDY    35  33  92 SW8       30.04F WCI  29
SALISBURY      CLOUDY    37  32  82 SW8       30.04F
BAY BRIDGE AP*   N/A     32  30  93 S8        30.00F WCI  25
CAMBRIDGE*     CLOUDY    36  32  87 S7        30.02F
EASTON*        MOCLDY    36  36 100 S6        30.05F

$$

MDZ017>025-040300-
SOUTHERN MARYLAND

CITY           SKY/WX    TMP DP  RH WIND       PRES   REMARKS
PATUXENT RIVER CLOUDY    35  27  72 SW9       30.03F WCI  28
ST INIGOES     CLOUDY    36  27  69 SW12      30.04F WCI  28
LEONARDTOWN*   CLOUDY    34  28  80 SW12      30.04F WCI  25

$$

MDZ003>005-040300-
NORTH CENTRAL MARYLAND

CITY           SKY/WX    TMP DP  RH WIND       PRES   REMARKS
FREDERICK*     CLOUDY    34  25  69 S3        29.95F
HAGERSTOWN APT FRZ RAIN  34  25  69 S8        29.87F WCI  27
WESTMINSTER*   CLOUDY    30  27  86 S12       29.90F WCI  21

$$

MDZ501>502-040300-
WESTERN MARYLAND

CITY           SKY/WX    TMP DP  RH WIND       PRES   REMARKS
OAKLAND*       CLOUDY    50 N/A N/A SW18G35   29.76S FOG
CUMBERLAND*      N/A     34  34 100 CALM        N/A

$$

VAZ025>031-040300-
SHENANDOAH VALLEY

CITY           SKY/WX    TMP DP  RH WIND       PRES   REMARKS
WINCHESTER*    PTCLDY    37  28  70 SW8       29.87F
FRONT ROYAL*   FAIR      41  32  70 SW13G22   29.86F
LURAY*         MOCLDY    41  34  75 SW18G24   29.90F
NEW MARKET*    FAIR      37  31  78 SW8G18    29.91F
STAUNTON*      MOCLDY    37  31  79 SW9       29.97F
WAYNESBORO*    MOCLDY    34  29  83 CALM      29.95F

$$

WVZ021-048>050-054>055-040300-
EASTERN WEST VIRGINIA PANHANDLE

CITY           SKY/WX    TMP DP  RH WIND       PRES   REMARKS
MARTINSBURG    CLOUDY    37  24  59 S8        29.87F
PETERSBURG*    NOT AVBL

$$

VAZ036>039-050-040300-
CENTRAL FOOTHILLS

CITY           SKY/WX    TMP DP  RH WIND       PRES   REMARKS
CHARLOTTESVILL MOCLDY    35  28  75 S17       29.99F WCI  25
CULPEPER*      PTCLDY    37  30  75 S12       29.98F
ORANGE*        CLOUDY    36  32  87 S14       30.00F WCI  27
GORDONSVILLE*  CLOUDY    34  31  88 SW17      30.00F WCI  24
WARRENTON*     MOCLDY    37  33  84 S9        29.96F

$$

VAZ055>057-040300-
NORTH AND CENTRAL PIEDMONT

CITY           SKY/WX    TMP DP  RH WIND       PRES   REMARKS
FREDERICKSBRG* CLOUDY    38  32  76 SW13      30.02F
STAFFORD*      CLOUDY    36  26  67 SW10G17   30.05F WCI  29

$$

NCZ024-NYZ072-PAZ021-071-VAZ022-071-040300-
OTHER REGIONAL OBSERVATIONS

CITY           SKY/WX    TMP DP  RH WIND       PRES   REMARKS
NEW YORK CITY  LGT RAIN  34  30  85 MISG      29.99F FOG
PHILADELPHIA   FRZ RAIN  33  30  88 S12       29.99F FOG     WCI  24
PITTSBURGH     LGT RAIN  49  47  93 SW12G21   29.71S
ROANOKE        CLOUDY    38  33  82 CALM      30.05F
RICHMOND       CLOUDY    35  33  92 S8        30.08F FOG     WCI  29
RALEIGH        DRIZZLE   36  33  89 W6        30.14F FOG

$$

ANZ530>537-040300-
MARINE OBSERVATIONS

STATION/POSITION TIME  TEMP    WIND        PRES
                       AIR SEA DIR/SP/G
                 (UTC) (F)     (DEG/KT/KT) (MB)
THOMAS PT LIGHT  0200   32 31  170/  2/  2 1016.8F
BALT KEY BRIDGE  0100   31     160/  3/  4 1016.9F
COVE POINT       0100   32     200/  9/ 11 1017.9F
LEWISETTA        0100   36 33  230/  9/ 11 1018.2F
SOLOMONS ISLAND  0100      33                N/A

$$




USA.gov is the U.S. government's official web portal to all federal, state and local government web resources and services.